Time,TemperatureF,DewpointF,PressureIn,WindDirection,WindDirectionDegrees,WindSpeedMPH,WindSpeedGustMPH,Humidity,HourlyPrecipIn,Conditions,Clouds,dailyrainin,SoftwareType,DateUTC
2013-04-27 00:01:00,73.8,67.3,30.24,West,270,2.0,3.0,80,0.00,,,0.00,meteohub,2013-04-27 04:01:00,
2013-04-27 00:02:00,73.8,66.9,30.23,West,270,3.0,3.0,79,0.00,,,0.00,meteohub,2013-04-27 04:02:00,
2013-04-27 00:03:00,73.8,66.9,30.24,South,180,4.0,4.0,79,0.00,,,0.00,meteohub,2013-04-27 04:03:00,
2013-04-27 00:07:00,74.1,67.1,30.24,NW,315,2.0,5.0,79,0.00,,,0.00,meteohub,2013-04-27 04:07:00,
2013-04-27 00:12:00,74.3,66.6,30.24,South,180,2.0,5.0,77,0.00,,,0.00,meteohub,2013-04-27 04:12:00,
2013-04-27 00:17:00,74.3,66.6,30.24,West,270,3.0,5.0,77,0.00,,,0.00,meteohub,2013-04-27 04:17:00,
2013-04-27 00:23:00,74.5,66.7,30.24,NW,315,4.0,4.0,77,0.00,,,0.00,meteohub,2013-04-27 04:23:00,
2013-04-27 00:28:00,74.7,66.2,30.24,NW,315,2.0,4.0,75,0.00,,,0.00,meteohub,2013-04-27 04:28:00,
2013-04-27 00:33:00,74.8,65.7,30.24,NW,315,4.0,4.0,73,0.00,,,0.00,meteohub,2013-04-27 04:33:00,
2013-04-27 00:38:00,75.2,65.5,30.24,NW,315,4.0,5.0,72,0.00,,,0.00,meteohub,2013-04-27 04:38:00,
2013-04-27 00:43:00,75.4,65.7,30.24,NW,315,8.0,8.0,72,0.00,,,0.00,meteohub,2013-04-27 04:43:00,
2013-04-27 00:48:00,75.6,65.5,30.24,NW,315,5.0,8.0,71,0.00,,,0.00,meteohub,2013-04-27 04:48:00,
2013-04-27 00:53:00,75.6,65.5,30.23,NW,315,5.0,8.0,71,0.00,,,0.00,meteohub,2013-04-27 04:53:00,
2013-04-27 00:58:00,75.6,65.8,30.24,NW,315,8.0,8.0,72,0.00,,,0.00,meteohub,2013-04-27 04:58:00,
2013-04-27 01:03:00,75.6,65.8,30.24,NW,315,8.0,11.0,72,0.00,,,0.00,meteohub,2013-04-27 05:03:00,
2013-04-27 01:08:00,75.6,66.4,30.24,NW,315,8.0,11.0,73,0.00,,,0.00,meteohub,2013-04-27 05:08:00,
2013-04-27 01:13:00,75.6,66.4,30.24,SW,225,4.0,11.0,73,0.00,,,0.00,meteohub,2013-04-27 05:13:00,
2013-04-27 01:18:00,75.4,66.2,30.23,NW,315,8.0,9.0,73,0.00,,,0.00,meteohub,2013-04-27 05:18:00,
2013-04-27 01:23:00,75.2,66.4,30.23,NW,315,6.0,9.0,74,0.00,,,0.00,meteohub,2013-04-27 05:23:00,
2013-04-27 01:28:00,75.0,66.6,30.23,South,180,4.0,9.0,75,0.00,,,0.00,meteohub,2013-04-27 05:28:00,
2013-04-27 01:34:00,74.8,66.7,30.23,NW,315,7.0,9.0,76,0.00,,,0.00,meteohub,2013-04-27 05:34:00,
2013-04-27 01:39:00,74.7,66.9,30.22,West,270,7.0,9.0,77,0.00,,,0.00,meteohub,2013-04-27 05:39:00,
2013-04-27 01:44:00,74.7,66.9,30.22,NW,315,6.0,8.0,77,0.00,,,0.00,meteohub,2013-04-27 05:44:00,
2013-04-27 01:49:00,74.5,67.1,30.22,NW,315,5.0,10.0,78,0.00,,,0.00,meteohub,2013-04-27 05:49:00,
2013-04-27 01:54:00,74.5,67.1,30.22,NW,315,4.0,10.0,78,0.00,,,0.00,meteohub,2013-04-27 05:54:00,
2013-04-27 01:59:00,74.3,67.3,30.22,West,270,7.0,11.0,79,0.00,,,0.00,meteohub,2013-04-27 05:59:00,
2013-04-27 02:04:00,74.3,67.3,30.22,North,0,4.0,11.0,79,0.00,,,0.00,meteohub,2013-04-27 06:04:00,
2013-04-27 02:09:00,74.1,67.6,30.21,NW,315,8.0,11.0,80,0.00,,,0.00,meteohub,2013-04-27 06:09:00,
2013-04-27 02:14:00,74.1,67.6,30.22,NW,315,4.0,11.0,80,0.00,,,0.00,meteohub,2013-04-27 06:14:00,
2013-04-27 02:19:00,73.9,67.8,30.21,SW,225,5.0,8.0,81,0.00,,,0.00,meteohub,2013-04-27 06:19:00,
2013-04-27 02:25:00,73.9,67.8,30.21,NW,315,4.0,9.0,81,0.00,,,0.00,meteohub,2013-04-27 06:25:00,
2013-04-27 02:30:00,73.9,67.8,30.20,NW,315,7.0,9.0,81,0.00,,,0.00,meteohub,2013-04-27 06:30:00,
2013-04-27 02:35:00,73.8,67.6,30.20,SW,225,8.0,8.0,81,0.00,,,0.00,meteohub,2013-04-27 06:35:00,
2013-04-27 02:40:00,73.8,67.6,30.20,West,270,7.0,7.0,81,0.00,,,0.00,meteohub,2013-04-27 06:40:00,
2013-04-27 02:45:00,73.8,67.6,30.19,NW,315,4.0,8.0,81,0.00,,,0.00,meteohub,2013-04-27 06:45:00,
2013-04-27 02:50:00,73.8,67.6,30.20,NW,315,4.0,10.0,81,0.00,,,0.00,meteohub,2013-04-27 06:50:00,
2013-04-27 02:55:00,73.6,67.8,30.19,NW,315,4.0,10.0,82,0.00,,,0.00,meteohub,2013-04-27 06:55:00,
2013-04-27 03:00:00,73.6,67.8,30.19,NW,315,7.0,8.0,82,0.00,,,0.00,meteohub,2013-04-27 07:00:00,
2013-04-27 03:05:00,73.6,67.8,30.19,NW,315,7.0,8.0,82,0.00,,,0.00,meteohub,2013-04-27 07:05:00,
2013-04-27 03:10:00,73.4,68.0,30.19,West,270,3.0,8.0,83,0.00,,,0.00,meteohub,2013-04-27 07:10:00,
2013-04-27 03:15:00,73.4,68.0,30.19,NW,315,4.0,7.0,83,0.00,,,0.00,meteohub,2013-04-27 07:15:00,
2013-04-27 03:20:00,73.4,68.0,30.19,NW,315,8.0,10.0,83,0.00,,,0.00,meteohub,2013-04-27 07:20:00,
2013-04-27 03:26:00,73.4,68.0,30.19,NW,315,3.0,10.0,83,0.00,,,0.00,meteohub,2013-04-27 07:26:00,
2013-04-27 03:31:00,73.2,68.2,30.19,NE,45,4.0,10.0,84,0.00,,,0.00,meteohub,2013-04-27 07:31:00,
2013-04-27 03:36:00,73.2,68.2,30.19,West,270,6.0,8.0,84,0.00,,,0.00,meteohub,2013-04-27 07:36:00,
2013-04-27 03:41:00,73.2,68.2,30.19,NW,315,4.0,6.0,84,0.00,,,0.00,meteohub,2013-04-27 07:41:00,
2013-04-27 03:46:00,73.2,68.2,30.19,West,270,4.0,6.0,84,0.00,,,0.00,meteohub,2013-04-27 07:46:00,
2013-04-27 03:51:00,73.0,68.0,30.19,NW,315,3.0,7.0,84,0.00,,,0.00,meteohub,2013-04-27 07:51:00,
2013-04-27 03:56:00,73.0,68.2,30.19,SE,135,4.0,7.0,85,0.00,,,0.00,meteohub,2013-04-27 07:56:00,
2013-04-27 04:01:00,72.9,68.0,30.19,NW,315,2.0,7.0,85,0.00,,,0.00,meteohub,2013-04-27 08:01:00,
2013-04-27 04:07:00,72.9,68.0,30.19,NW,315,2.0,7.0,85,0.00,,,0.00,meteohub,2013-04-27 08:07:00,
2013-04-27 04:12:00,72.7,68.2,30.19,NW,315,2.0,5.0,86,0.00,,,0.00,meteohub,2013-04-27 08:12:00,
2013-04-27 04:17:00,72.7,68.5,30.19,NW,315,2.0,5.0,87,0.00,,,0.00,meteohub,2013-04-27 08:17:00,
2013-04-27 04:22:00,72.7,68.5,30.19,North,0,4.0,5.0,87,0.00,,,0.00,meteohub,2013-04-27 08:22:00,
2013-04-27 04:27:00,72.7,68.5,30.19,NW,315,6.0,6.0,87,0.00,,,0.00,meteohub,2013-04-27 08:27:00,
2013-04-27 04:32:00,72.7,68.5,30.19,NW,315,4.0,6.0,87,0.00,,,0.00,meteohub,2013-04-27 08:32:00,
2013-04-27 04:37:00,72.7,68.5,30.19,West,270,4.0,6.0,87,0.00,,,0.00,meteohub,2013-04-27 08:37:00,
2013-04-27 04:42:00,72.7,68.5,30.19,NW,315,5.0,6.0,87,0.00,,,0.00,meteohub,2013-04-27 08:42:00,
2013-04-27 04:47:00,72.7,68.5,30.19,NW,315,6.0,8.0,87,0.00,,,0.00,meteohub,2013-04-27 08:47:00,
2013-04-27 04:52:00,72.7,68.5,30.19,NW,315,4.0,8.0,87,0.00,,,0.00,meteohub,2013-04-27 08:52:00,
2013-04-27 04:57:00,72.5,68.7,30.19,West,270,2.0,8.0,88,0.00,,,0.00,meteohub,2013-04-27 08:57:00,
2013-04-27 05:02:00,72.5,68.7,30.18,North,0,6.0,8.0,88,0.00,,,0.00,meteohub,2013-04-27 09:02:00,
2013-04-27 05:07:00,72.5,68.7,30.18,North,0,6.0,8.0,88,0.00,,,0.00,meteohub,2013-04-27 09:07:00,
2013-04-27 05:12:00,72.3,68.9,30.18,West,270,3.0,6.0,89,0.00,,,0.00,meteohub,2013-04-27 09:12:00,
2013-04-27 05:17:00,72.1,68.7,30.18,NW,315,6.0,6.0,89,0.00,,,0.00,meteohub,2013-04-27 09:17:00,
2013-04-27 05:22:00,72.1,68.7,30.18,NW,315,2.0,6.0,89,0.00,,,0.00,meteohub,2013-04-27 09:22:00,
2013-04-27 05:27:00,72.1,68.7,30.18,NW,315,2.0,7.0,89,0.00,,,0.00,meteohub,2013-04-27 09:27:00,
2013-04-27 05:32:00,72.0,68.9,30.18,NW,315,2.0,7.0,90,0.00,,,0.00,meteohub,2013-04-27 09:32:00,
2013-04-27 05:37:00,71.8,68.7,30.18,West,270,2.0,4.0,90,0.00,,,0.00,meteohub,2013-04-27 09:37:00,
2013-04-27 05:42:00,71.6,68.9,30.17,West,270,2.0,3.0,91,0.00,,,0.00,meteohub,2013-04-27 09:42:00,
2013-04-27 05:47:00,71.4,68.7,30.17,NW,315,3.0,3.0,91,0.00,,,0.00,meteohub,2013-04-27 09:47:00,
2013-04-27 05:52:00,71.2,68.7,30.17,West,270,3.0,3.0,92,0.00,,,0.00,meteohub,2013-04-27 09:52:00,
2013-04-27 05:57:00,71.2,68.7,30.18,NW,315,3.0,4.0,92,0.00,,,0.00,meteohub,2013-04-27 09:57:00,
2013-04-27 06:02:00,71.1,68.5,30.17,NW,315,2.0,4.0,92,0.00,,,0.00,meteohub,2013-04-27 10:02:00,
2013-04-27 06:07:00,70.9,68.4,30.18,NW,315,2.0,4.0,92,0.00,,,0.00,meteohub,2013-04-27 10:07:00,
2013-04-27 06:12:00,70.9,68.7,30.17,NW,315,2.0,3.0,93,0.00,,,0.00,meteohub,2013-04-27 10:12:00,
2013-04-27 06:17:00,70.7,68.5,30.18,NW,315,4.0,4.0,93,0.00,,,0.00,meteohub,2013-04-27 10:17:00,
2013-04-27 06:22:00,70.5,68.4,30.18,NW,315,0.0,4.0,93,0.00,,,0.00,meteohub,2013-04-27 10:22:00,
2013-04-27 06:27:00,70.5,68.4,30.18,NW,315,2.0,4.0,93,0.00,,,0.00,meteohub,2013-04-27 10:27:00,
2013-04-27 06:32:00,70.3,68.5,30.18,NW,315,2.0,4.0,94,0.00,,,0.00,meteohub,2013-04-27 10:32:00,
2013-04-27 06:37:00,70.2,68.4,30.18,NW,315,1.0,2.0,94,0.00,,,0.00,meteohub,2013-04-27 10:37:00,
2013-04-27 06:42:00,70.2,68.4,30.18,West,270,2.0,2.0,94,0.00,,,0.00,meteohub,2013-04-27 10:42:00,
2013-04-27 06:47:00,70.0,68.2,30.18,West,270,0.0,2.0,94,0.00,,,0.00,meteohub,2013-04-27 10:47:00,
2013-04-27 06:52:00,70.0,68.5,30.19,NW,315,2.0,2.0,95,0.00,,,0.00,meteohub,2013-04-27 10:52:00,
2013-04-27 06:57:00,70.0,68.5,30.19,NW,315,1.0,2.0,95,0.00,,,0.00,meteohub,2013-04-27 10:57:00,
2013-04-27 07:02:00,70.0,68.5,30.19,West,270,2.0,2.0,95,0.00,,,0.00,meteohub,2013-04-27 11:02:00,
2013-04-27 07:07:00,70.0,68.5,30.19,SW,225,1.0,2.0,95,0.00,,,0.00,meteohub,2013-04-27 11:07:00,
2013-04-27 07:12:00,70.0,68.7,30.19,NW,315,1.0,2.0,96,0.00,,,0.00,meteohub,2013-04-27 11:12:00,
2013-04-27 07:17:00,70.2,68.9,30.19,SW,225,2.0,2.0,96,0.00,,,0.00,meteohub,2013-04-27 11:17:00,
2013-04-27 07:22:00,70.3,69.1,30.19,West,270,4.0,4.0,96,0.00,,,0.00,meteohub,2013-04-27 11:22:00,
2013-04-27 07:27:00,70.5,69.3,30.20,SW,225,2.0,4.0,96,0.00,,,0.00,meteohub,2013-04-27 11:27:00,
2013-04-27 07:32:00,70.7,69.4,30.20,NW,315,4.0,4.0,96,0.00,,,0.00,meteohub,2013-04-27 11:32:00,
2013-04-27 07:37:00,70.9,69.4,30.20,East,90,3.0,4.0,95,0.00,,,0.00,meteohub,2013-04-27 11:37:00,
2013-04-27 07:42:00,71.2,69.1,30.20,NW,315,8.0,8.0,93,0.00,,,0.00,meteohub,2013-04-27 11:42:00,
2013-04-27 07:47:00,71.4,69.3,30.20,West,270,3.0,8.0,93,0.00,,,0.00,meteohub,2013-04-27 11:47:00,
2013-04-27 07:52:00,71.6,69.1,30.20,NW,315,4.0,8.0,92,0.00,,,0.00,meteohub,2013-04-27 11:52:00,
2013-04-27 07:57:00,72.1,69.6,30.20,NW,315,4.0,8.0,92,0.00,,,0.00,meteohub,2013-04-27 11:57:00,
2013-04-27 08:02:00,72.3,69.6,30.21,South,180,4.0,5.0,91,0.00,,,0.00,meteohub,2013-04-27 12:02:00,
2013-04-27 08:07:00,72.7,69.6,30.21,West,270,6.0,6.0,90,0.00,,,0.00,meteohub,2013-04-27 12:07:00,
2013-04-27 08:13:00,72.9,69.4,30.21,NW,315,6.0,7.0,89,0.00,,,0.00,meteohub,2013-04-27 12:13:00,
2013-04-27 08:18:00,73.0,70.0,30.20,West,270,4.0,7.0,90,0.00,,,0.00,meteohub,2013-04-27 12:18:00,
2013-04-27 08:23:00,73.6,70.2,30.21,West,270,3.0,7.0,89,0.00,,,0.00,meteohub,2013-04-27 12:23:00,
2013-04-27 08:28:00,73.9,70.2,30.21,NW,315,3.0,6.0,88,0.00,,,0.00,meteohub,2013-04-27 12:28:00,
2013-04-27 08:33:00,74.1,70.0,30.22,West,270,3.0,5.0,87,0.00,,,0.00,meteohub,2013-04-27 12:33:00,
2013-04-27 08:38:00,74.5,70.0,30.21,North,0,3.0,6.0,86,0.00,,,0.00,meteohub,2013-04-27 12:38:00,
2013-04-27 08:43:00,74.8,69.6,30.21,West,270,7.0,7.0,84,0.00,,,0.00,meteohub,2013-04-27 12:43:00,
2013-04-27 08:48:00,75.0,69.8,30.21,SW,225,5.0,7.0,84,0.00,,,0.00,meteohub,2013-04-27 12:48:00,
2013-04-27 08:53:00,75.6,69.6,30.21,West,270,5.0,8.0,82,0.00,,,0.00,meteohub,2013-04-27 12:53:00,
2013-04-27 08:58:00,75.4,69.8,30.21,West,270,6.0,8.0,83,0.00,,,0.00,meteohub,2013-04-27 12:58:00,
2013-04-27 09:03:00,75.4,69.4,30.21,NW,315,7.0,8.0,82,0.00,,,0.00,meteohub,2013-04-27 13:03:00,
2013-04-27 09:09:00,75.9,69.3,30.21,West,270,4.0,8.0,80,0.00,,,0.00,meteohub,2013-04-27 13:09:00,
2013-04-27 09:14:00,76.3,68.5,30.21,NW,315,5.0,8.0,77,0.00,,,0.00,meteohub,2013-04-27 13:14:00,
2013-04-27 09:19:00,76.6,68.9,30.21,North,0,8.0,9.0,77,0.00,,,0.00,meteohub,2013-04-27 13:19:00,
2013-04-27 09:24:00,76.8,68.4,30.21,West,270,8.0,9.0,75,0.00,,,0.00,meteohub,2013-04-27 13:24:00,
2013-04-27 09:29:00,76.8,68.4,30.21,NW,315,6.0,8.0,75,0.00,,,0.00,meteohub,2013-04-27 13:29:00,
2013-04-27 09:34:00,76.8,68.4,30.21,West,270,5.0,8.0,75,0.00,,,0.00,meteohub,2013-04-27 13:34:00,
2013-04-27 09:39:00,77.4,68.9,30.21,NW,315,4.0,9.0,75,0.00,,,0.00,meteohub,2013-04-27 13:39:00,
2013-04-27 09:44:00,77.5,67.8,30.21,NW,315,6.0,9.0,72,0.00,,,0.00,meteohub,2013-04-27 13:44:00,
2013-04-27 09:50:00,77.7,68.0,30.21,North,0,4.0,9.0,72,0.00,,,0.00,meteohub,2013-04-27 13:50:00,
2013-04-27 09:55:00,78.4,68.2,30.21,NW,315,8.0,9.0,71,0.00,,,0.00,meteohub,2013-04-27 13:55:00,
2013-04-27 10:00:00,79.3,68.7,30.21,North,0,2.0,9.0,70,0.00,,,0.00,meteohub,2013-04-27 14:00:00,
2013-04-27 10:05:00,78.8,67.3,30.21,NW,315,13.0,13.0,68,0.00,,,0.00,meteohub,2013-04-27 14:05:00,
2013-04-27 10:10:00,79.3,67.8,30.21,NW,315,7.0,13.0,68,0.00,,,0.00,meteohub,2013-04-27 14:10:00,
2013-04-27 10:15:00,79.0,67.1,30.21,NW,315,7.0,13.0,67,0.00,,,0.00,meteohub,2013-04-27 14:15:00,
2013-04-27 10:20:00,79.7,67.8,30.21,NW,315,6.0,13.0,67,0.00,,,0.00,meteohub,2013-04-27 14:20:00,
2013-04-27 10:25:00,79.7,66.9,30.21,West,270,4.0,10.0,65,0.00,,,0.00,meteohub,2013-04-27 14:25:00,
2013-04-27 10:30:00,80.4,66.7,30.21,NW,315,7.0,9.0,63,0.00,,,0.00,meteohub,2013-04-27 14:30:00,
2013-04-27 10:35:00,80.2,66.9,30.21,West,270,6.0,9.0,64,0.00,,,0.00,meteohub,2013-04-27 14:35:00,
2013-04-27 10:41:00,81.0,67.1,30.21,North,0,4.0,9.0,63,0.00,,,0.00,meteohub,2013-04-27 14:41:00,
2013-04-27 10:46:00,80.6,66.9,30.21,West,270,4.0,7.0,63,0.00,,,0.00,meteohub,2013-04-27 14:46:00,
2013-04-27 10:51:00,81.1,67.8,30.21,SW,225,5.0,6.0,64,0.00,,,0.00,meteohub,2013-04-27 14:51:00,
2013-04-27 10:56:00,81.7,67.5,30.21,NW,315,4.0,7.0,62,0.00,,,0.00,meteohub,2013-04-27 14:56:00,
2013-04-27 11:01:00,81.3,67.1,30.22,SW,225,4.0,10.0,62,0.00,,,0.00,meteohub,2013-04-27 15:01:00,
2013-04-27 11:06:00,81.9,67.1,30.21,West,270,4.0,10.0,61,0.00,,,0.00,meteohub,2013-04-27 15:06:00,
2013-04-27 11:11:00,81.9,66.6,30.21,NW,315,7.0,10.0,60,0.00,,,0.00,meteohub,2013-04-27 15:11:00,
2013-04-27 11:16:00,82.0,67.3,30.21,West,270,4.0,11.0,61,0.00,,,0.00,meteohub,2013-04-27 15:16:00,
2013-04-27 11:21:00,81.9,66.6,30.21,NW,315,6.0,11.0,60,0.00,,,0.00,meteohub,2013-04-27 15:21:00,
2013-04-27 11:26:00,81.9,66.2,30.21,North,0,4.0,11.0,59,0.00,,,0.00,meteohub,2013-04-27 15:26:00,
2013-04-27 11:31:00,82.4,66.2,30.21,NW,315,2.0,8.0,58,0.00,,,0.00,meteohub,2013-04-27 15:31:00,
2013-04-27 11:36:00,82.6,67.8,30.21,NW,315,4.0,9.0,61,0.00,,,0.00,meteohub,2013-04-27 15:36:00,
2013-04-27 11:41:00,82.4,64.6,30.21,East,90,4.0,9.0,55,0.00,,,0.00,meteohub,2013-04-27 15:41:00,
2013-04-27 11:47:00,83.1,66.4,30.21,NW,315,3.0,9.0,57,0.00,,,0.00,meteohub,2013-04-27 15:47:00,
2013-04-27 11:52:00,83.3,64.9,30.22,SW,225,4.0,10.0,54,0.00,,,0.00,meteohub,2013-04-27 15:52:00,
2013-04-27 11:57:00,83.5,64.0,30.21,SW,225,14.0,14.0,52,0.00,,,0.00,meteohub,2013-04-27 15:57:00,
2013-04-27 12:02:00,83.3,64.9,30.21,NW,315,3.0,14.0,54,0.00,,,0.00,meteohub,2013-04-27 16:02:00,
2013-04-27 12:07:00,83.3,64.4,30.21,NW,315,8.0,14.0,53,0.00,,,0.00,meteohub,2013-04-27 16:07:00,
2013-04-27 12:12:00,83.3,63.9,30.21,North,0,4.0,14.0,52,0.00,,,0.00,meteohub,2013-04-27 16:12:00,
2013-04-27 12:17:00,83.1,64.2,30.21,NW,315,4.0,11.0,53,0.00,,,0.00,meteohub,2013-04-27 16:17:00,
2013-04-27 12:22:00,83.5,63.0,30.20,NW,315,6.0,11.0,50,0.00,,,0.00,meteohub,2013-04-27 16:22:00,
2013-04-27 12:27:00,84.2,63.5,30.20,North,0,5.0,7.0,50,0.00,,,0.00,meteohub,2013-04-27 16:27:00,
2013-04-27 12:32:00,83.5,62.2,30.20,North,0,7.0,11.0,49,0.00,,,0.00,meteohub,2013-04-27 16:32:00,
2013-04-27 12:37:00,82.9,61.9,30.20,North,0,8.0,11.0,49,0.00,,,0.00,meteohub,2013-04-27 16:37:00,
2013-04-27 12:42:00,83.3,63.9,30.19,NE,45,6.0,11.0,52,0.00,,,0.00,meteohub,2013-04-27 16:42:00,
2013-04-27 12:47:00,83.8,63.9,30.19,West,270,8.0,11.0,51,0.00,,,0.00,meteohub,2013-04-27 16:47:00,
2013-04-27 12:52:00,83.3,62.8,30.19,NW,315,4.0,10.0,50,0.00,,,0.00,meteohub,2013-04-27 16:52:00,
2013-04-27 12:57:00,83.7,63.0,30.19,NW,315,4.0,10.0,50,0.00,,,0.00,meteohub,2013-04-27 16:57:00,
2013-04-27 13:02:00,84.4,62.6,30.19,NW,315,4.0,10.0,48,0.00,,,0.00,meteohub,2013-04-27 17:02:00,
2013-04-27 13:07:00,84.6,61.5,30.19,West,270,6.0,8.0,46,0.00,,,0.00,meteohub,2013-04-27 17:07:00,
2013-04-27 13:12:00,85.1,63.1,30.18,North,0,4.0,8.0,48,0.00,,,0.00,meteohub,2013-04-27 17:12:00,
2013-04-27 13:17:00,85.1,62.6,30.18,NW,315,6.0,8.0,47,0.00,,,0.00,meteohub,2013-04-27 17:17:00,
2013-04-27 13:22:00,85.3,62.2,30.18,North,0,4.0,8.0,46,0.00,,,0.00,meteohub,2013-04-27 17:22:00,
2013-04-27 13:27:00,85.5,61.7,30.18,North,0,3.0,8.0,45,0.00,,,0.00,meteohub,2013-04-27 17:27:00,
2013-04-27 13:32:00,85.6,62.4,30.18,North,0,9.0,9.0,46,0.00,,,0.00,meteohub,2013-04-27 17:32:00,
2013-04-27 13:38:00,85.6,63.1,30.17,NW,315,4.0,9.0,47,0.00,,,0.00,meteohub,2013-04-27 17:38:00,
2013-04-27 13:43:00,86.2,61.0,30.17,NW,315,8.0,9.0,43,0.00,,,0.00,meteohub,2013-04-27 17:43:00,
2013-04-27 13:48:00,87.1,63.1,30.17,North,0,2.0,9.0,45,0.00,,,0.00,meteohub,2013-04-27 17:48:00,
2013-04-27 13:53:00,86.4,61.9,30.17,NE,45,5.0,11.0,44,0.00,,,0.00,meteohub,2013-04-27 17:53:00,
2013-04-27 13:58:00,86.7,61.5,30.17,NW,315,4.0,11.0,43,0.00,,,0.00,meteohub,2013-04-27 17:58:00,
2013-04-27 14:03:00,86.5,61.3,30.17,West,270,8.0,11.0,43,0.00,,,0.00,meteohub,2013-04-27 18:03:00,
2013-04-27 14:08:00,85.8,60.8,30.17,SW,225,4.0,8.0,43,0.00,,,0.00,meteohub,2013-04-27 18:08:00,
2013-04-27 14:13:00,84.7,61.0,30.16,East,90,1.0,8.0,45,0.00,,,0.00,meteohub,2013-04-27 18:13:00,
2013-04-27 14:18:00,84.9,59.9,30.16,West,270,4.0,8.0,43,0.00,,,0.00,meteohub,2013-04-27 18:18:00,
2013-04-27 14:23:00,85.1,60.1,30.16,West,270,4.0,7.0,43,0.00,,,0.00,meteohub,2013-04-27 18:23:00,
2013-04-27 14:28:00,87.6,68.9,30.16,West,270,3.0,7.0,54,0.00,,,0.00,meteohub,2013-04-27 18:28:00,
2013-04-27 14:33:00,86.7,68.5,30.16,West,270,4.0,6.0,55,0.00,,,0.00,meteohub,2013-04-27 18:33:00,
2013-04-27 14:39:00,85.1,68.7,30.15,West,270,3.0,8.0,58,0.00,,,0.00,meteohub,2013-04-27 18:39:00,
2013-04-27 14:44:00,83.8,68.5,30.15,East,90,8.0,10.0,60,0.00,,,0.00,meteohub,2013-04-27 18:44:00,
2013-04-27 14:49:00,82.4,69.1,30.15,North,0,3.0,10.0,64,0.00,,,0.00,meteohub,2013-04-27 18:49:00,
2013-04-27 14:54:00,82.2,69.8,30.14,South,180,9.0,10.0,66,0.00,,,0.00,meteohub,2013-04-27 18:54:00,
2013-04-27 14:59:00,81.5,69.4,30.14,East,90,8.0,9.0,67,0.00,,,0.00,meteohub,2013-04-27 18:59:00,
2013-04-27 15:04:00,82.2,68.9,30.15,NE,45,4.0,11.0,64,0.00,,,0.00,meteohub,2013-04-27 19:04:00,
2013-04-27 15:09:00,82.0,68.7,30.14,SW,225,8.0,11.0,64,0.00,,,0.00,meteohub,2013-04-27 19:09:00,
2013-04-27 15:14:00,81.9,68.5,30.14,SE,135,10.0,11.0,64,0.00,,,0.00,meteohub,2013-04-27 19:14:00,
2013-04-27 15:19:00,81.3,68.4,30.14,SE,135,9.0,11.0,65,0.00,,,0.00,meteohub,2013-04-27 19:19:00,
2013-04-27 15:24:00,82.8,68.9,30.14,SW,225,6.0,11.0,63,0.00,,,0.00,meteohub,2013-04-27 19:24:00,
2013-04-27 15:29:00,83.5,67.1,30.13,East,90,8.0,11.0,58,0.00,,,0.00,meteohub,2013-04-27 19:29:00,
2013-04-27 15:34:00,82.4,67.6,30.13,SE,135,8.0,11.0,61,0.00,,,0.00,meteohub,2013-04-27 19:34:00,
2013-04-27 15:39:00,82.2,68.4,30.13,South,180,8.0,11.0,63,0.00,,,0.00,meteohub,2013-04-27 19:39:00,
2013-04-27 15:44:00,82.6,69.6,30.13,East,90,4.0,11.0,65,0.00,,,0.00,meteohub,2013-04-27 19:44:00,
2013-04-27 15:50:00,83.1,68.4,30.12,SE,135,8.0,9.0,61,0.00,,,0.00,meteohub,2013-04-27 19:50:00,
2013-04-27 15:55:00,83.8,68.9,30.12,ESE,113,7.0,13.0,61,0.00,,,0.00,meteohub,2013-04-27 19:55:00,
2013-04-27 16:00:00,84.0,68.7,30.12,NE,45,8.0,13.0,60,0.00,,,0.00,meteohub,2013-04-27 20:00:00,
2013-04-27 16:05:00,83.3,68.9,30.12,SW,225,8.0,13.0,62,0.00,,,0.00,meteohub,2013-04-27 20:05:00,
2013-04-27 16:10:00,83.8,70.0,30.12,North,0,8.0,11.0,63,0.00,,,0.00,meteohub,2013-04-27 20:10:00,
2013-04-27 16:15:00,84.7,69.8,30.11,South,180,4.0,11.0,61,0.00,,,0.00,meteohub,2013-04-27 20:15:00,
2013-04-27 16:20:00,84.0,69.1,30.11,SE,135,11.0,11.0,61,0.00,,,0.00,meteohub,2013-04-27 20:20:00,
2013-04-27 16:26:00,83.7,68.7,30.11,SW,225,7.0,11.0,61,0.00,,,0.00,meteohub,2013-04-27 20:26:00,
2013-04-27 16:31:00,82.8,68.9,30.11,South,180,8.0,16.0,63,0.00,,,0.00,meteohub,2013-04-27 20:31:00,
2013-04-27 16:36:00,81.5,67.3,30.11,SW,225,11.0,16.0,62,0.00,,,0.00,meteohub,2013-04-27 20:36:00,
2013-04-27 16:41:00,80.6,67.3,30.11,South,180,8.0,16.0,64,0.00,,,0.00,meteohub,2013-04-27 20:41:00,
2013-04-27 16:46:00,80.2,68.4,30.11,South,180,8.0,12.0,67,0.00,,,0.00,meteohub,2013-04-27 20:46:00,
2013-04-27 16:51:00,79.9,68.4,30.11,SW,225,6.0,11.0,68,0.00,,,0.00,meteohub,2013-04-27 20:51:00,
2013-04-27 16:56:00,79.5,68.0,30.11,South,180,10.0,11.0,68,0.00,,,0.00,meteohub,2013-04-27 20:56:00,
2013-04-27 17:01:00,79.0,68.4,30.11,SW,225,6.0,11.0,70,0.00,,,0.00,meteohub,2013-04-27 21:01:00,
2013-04-27 17:06:00,79.0,68.7,30.11,West,270,4.0,11.0,71,0.00,,,0.00,meteohub,2013-04-27 21:06:00,
2013-04-27 17:11:00,79.5,68.9,30.10,SE,135,7.0,11.0,70,0.00,,,0.00,meteohub,2013-04-27 21:11:00,
2013-04-27 17:17:00,80.2,69.6,30.11,NW,315,8.0,8.0,70,0.00,,,0.00,meteohub,2013-04-27 21:17:00,
2013-04-27 17:22:00,79.7,68.5,30.10,SE,135,4.0,10.0,69,0.00,,,0.00,meteohub,2013-04-27 21:22:00,
2013-04-27 17:27:00,79.2,68.5,30.10,South,180,8.0,10.0,70,0.00,,,0.00,meteohub,2013-04-27 21:27:00,
2013-04-27 17:32:00,78.6,68.0,30.10,SE,135,8.0,10.0,70,0.00,,,0.00,meteohub,2013-04-27 21:32:00,
2013-04-27 17:37:00,78.4,68.2,30.10,SW,225,5.0,10.0,71,0.00,,,0.00,meteohub,2013-04-27 21:37:00,
2013-04-27 17:42:00,78.8,68.5,30.10,SW,225,4.0,10.0,71,0.01,,,0.01,meteohub,2013-04-27 21:42:00,
2013-04-27 17:47:00,78.8,68.2,30.09,SW,225,8.0,10.0,70,0.01,,,0.01,meteohub,2013-04-27 21:47:00,
2013-04-27 17:52:00,78.8,68.5,30.10,SW,225,6.0,10.0,71,0.01,,,0.01,meteohub,2013-04-27 21:52:00,
2013-04-27 17:57:00,79.5,68.9,30.10,South,180,1.0,10.0,70,0.01,,,0.01,meteohub,2013-04-27 21:57:00,
2013-04-27 18:02:00,80.6,68.5,30.10,SW,225,6.0,10.0,67,0.01,,,0.01,meteohub,2013-04-27 22:02:00,
2013-04-27 18:07:00,81.9,68.0,30.10,South,180,6.0,8.0,63,0.01,,,0.01,meteohub,2013-04-27 22:07:00,
2013-04-27 18:12:00,82.4,68.5,30.10,SW,225,8.0,11.0,63,0.01,,,0.01,meteohub,2013-04-27 22:12:00,
2013-04-27 18:17:00,81.3,67.5,30.10,West,270,9.0,11.0,63,0.01,,,0.01,meteohub,2013-04-27 22:17:00,
2013-04-27 18:22:00,80.2,66.6,30.10,SW,225,7.0,13.0,63,0.01,,,0.01,meteohub,2013-04-27 22:22:00,
2013-04-27 18:27:00,80.1,66.4,30.10,SW,225,8.0,13.0,63,0.01,,,0.01,meteohub,2013-04-27 22:27:00,
2013-04-27 18:32:00,79.7,66.9,30.10,SW,225,6.0,10.0,65,0.01,,,0.01,meteohub,2013-04-27 22:32:00,
2013-04-27 18:37:00,79.3,66.9,30.10,SW,225,9.0,10.0,66,0.01,,,0.01,meteohub,2013-04-27 22:37:00,
2013-04-27 18:42:00,79.3,67.8,30.10,WNW,293,3.0,10.0,68,0.00,,,0.01,meteohub,2013-04-27 22:42:00,
2013-04-27 18:47:00,79.2,67.3,30.10,SW,225,5.0,10.0,67,0.00,,,0.01,meteohub,2013-04-27 22:47:00,
2013-04-27 18:52:00,79.2,68.2,30.10,South,180,8.0,10.0,69,0.00,,,0.01,meteohub,2013-04-27 22:52:00,
2013-04-27 18:57:00,79.2,68.5,30.10,West,270,4.0,10.0,70,0.00,,,0.01,meteohub,2013-04-27 22:57:00,
2013-04-27 19:02:00,79.0,68.7,30.10,SW,225,4.0,9.0,71,0.00,,,0.01,meteohub,2013-04-27 23:02:00,
2013-04-27 19:07:00,78.8,69.1,30.10,SW,225,5.0,9.0,72,0.00,,,0.01,meteohub,2013-04-27 23:07:00,
2013-04-27 19:12:00,78.8,68.2,30.10,SW,225,7.0,11.0,70,0.00,,,0.01,meteohub,2013-04-27 23:12:00,
2013-04-27 19:17:00,78.3,68.0,30.10,West,270,8.0,12.0,71,0.00,,,0.01,meteohub,2013-04-27 23:17:00,
2013-04-27 19:22:00,77.9,68.2,30.09,SW,225,5.0,12.0,72,0.00,,,0.01,meteohub,2013-04-27 23:22:00,
2013-04-27 19:27:00,77.9,68.2,30.09,West,270,5.0,12.0,72,0.00,,,0.01,meteohub,2013-04-27 23:27:00,
2013-04-27 19:32:00,77.7,68.0,30.10,West,270,4.0,10.0,72,0.00,,,0.01,meteohub,2013-04-27 23:32:00,
2013-04-27 19:37:00,77.7,68.0,30.10,West,270,4.0,10.0,72,0.00,,,0.01,meteohub,2013-04-27 23:37:00,
2013-04-27 19:42:00,77.4,66.7,30.10,NW,315,4.0,10.0,70,0.00,,,0.01,meteohub,2013-04-27 23:42:00,
2013-04-27 19:47:00,77.4,66.7,30.11,SW,225,6.0,10.0,70,0.00,,,0.01,meteohub,2013-04-27 23:47:00,
2013-04-27 19:52:00,77.2,67.1,30.10,NW,315,2.0,10.0,71,0.00,,,0.01,meteohub,2013-04-27 23:52:00,
2013-04-27 19:57:00,77.2,67.1,30.10,SW,225,7.0,8.0,71,0.00,,,0.01,meteohub,2013-04-27 23:57:00,
2013-04-27 20:02:00,77.0,67.3,30.10,SW,225,4.0,8.0,72,0.00,,,0.01,meteohub,2013-04-28 00:02:00,
2013-04-27 20:07:00,76.8,67.1,30.10,SW,225,3.0,8.0,72,0.00,,,0.01,meteohub,2013-04-28 00:07:00,
2013-04-27 20:12:00,76.8,67.5,30.10,SW,225,2.0,7.0,73,0.00,,,0.01,meteohub,2013-04-28 00:12:00,
2013-04-27 20:17:00,76.6,66.9,30.10,SW,225,7.0,8.0,72,0.00,,,0.01,meteohub,2013-04-28 00:17:00,
2013-04-27 20:22:00,76.6,66.9,30.10,SW,225,2.0,8.0,72,0.00,,,0.01,meteohub,2013-04-28 00:22:00,
2013-04-27 20:27:00,76.5,66.7,30.10,West,270,4.0,8.0,72,0.00,,,0.01,meteohub,2013-04-28 00:27:00,
2013-04-27 20:32:00,76.3,66.9,30.10,West,270,2.0,7.0,73,0.00,,,0.01,meteohub,2013-04-28 00:32:00,
2013-04-27 20:37:00,76.3,66.9,30.11,NW,315,2.0,5.0,73,0.00,,,0.01,meteohub,2013-04-28 00:37:00,
2013-04-27 20:42:00,76.1,66.7,30.11,North,0,1.0,4.0,73,0.00,,,0.01,meteohub,2013-04-28 00:42:00,
2013-04-27 20:47:00,76.1,66.7,30.11,NW,315,2.0,4.0,73,0.00,,,0.01,meteohub,2013-04-28 00:47:00,
2013-04-27 20:52:00,76.1,66.7,30.11,NE,45,3.0,5.0,73,0.00,,,0.01,meteohub,2013-04-28 00:52:00,
2013-04-27 20:57:00,75.9,66.6,30.11,West,270,2.0,5.0,73,0.00,,,0.01,meteohub,2013-04-28 00:57:00,
2013-04-27 21:02:00,75.9,66.6,30.11,NW,315,4.0,4.0,73,0.00,,,0.01,meteohub,2013-04-28 01:02:00,
2013-04-27 21:08:00,75.7,66.4,30.12,West,270,4.0,5.0,73,0.00,,,0.01,meteohub,2013-04-28 01:08:00,
2013-04-27 21:13:00,75.7,66.4,30.12,West,270,5.0,5.0,73,0.00,,,0.01,meteohub,2013-04-28 01:13:00,
2013-04-27 21:18:00,75.7,66.9,30.12,NE,45,2.0,5.0,74,0.00,,,0.01,meteohub,2013-04-28 01:18:00,
2013-04-27 21:23:00,75.7,66.9,30.12,SW,225,2.0,5.0,74,0.00,,,0.01,meteohub,2013-04-28 01:23:00,
2013-04-27 21:28:00,75.6,67.1,30.12,West,270,2.0,5.0,75,0.00,,,0.01,meteohub,2013-04-28 01:28:00,
2013-04-27 21:33:00,75.4,66.9,30.12,NE,45,2.0,3.0,75,0.00,,,0.01,meteohub,2013-04-28 01:33:00,
2013-04-27 21:38:00,75.4,66.9,30.12,North,0,2.0,4.0,75,0.00,,,0.01,meteohub,2013-04-28 01:38:00,
2013-04-27 21:43:00,75.2,66.7,30.12,NW,315,2.0,4.0,75,0.00,,,0.01,meteohub,2013-04-28 01:43:00,
2013-04-27 21:48:00,75.0,66.6,30.12,North,0,2.0,3.0,75,0.00,,,0.01,meteohub,2013-04-28 01:48:00,
2013-04-27 21:53:00,74.8,66.7,30.12,West,270,2.0,2.0,76,0.00,,,0.01,meteohub,2013-04-28 01:53:00,
2013-04-27 21:58:00,74.8,66.7,30.12,West,270,2.0,2.0,76,0.00,,,0.01,meteohub,2013-04-28 01:58:00,
2013-04-27 22:03:00,75.0,66.2,30.13,NW,315,3.0,3.0,74,0.00,,,0.01,meteohub,2013-04-28 02:03:00,
2013-04-27 22:09:00,75.4,65.3,30.13,NW,315,4.0,5.0,71,0.00,,,0.01,meteohub,2013-04-28 02:09:00,
2013-04-27 22:14:00,75.9,64.9,30.13,North,0,4.0,5.0,69,0.00,,,0.01,meteohub,2013-04-28 02:14:00,
2013-04-27 22:19:00,76.3,64.6,30.13,West,270,2.0,7.0,67,0.00,,,0.01,meteohub,2013-04-28 02:19:00,
2013-04-27 22:24:00,76.6,64.0,30.14,NW,315,4.0,7.0,65,0.00,,,0.01,meteohub,2013-04-28 02:24:00,
2013-04-27 22:29:00,77.0,64.4,30.14,North,0,6.0,10.0,65,0.00,,,0.01,meteohub,2013-04-28 02:29:00,
2013-04-27 22:34:00,77.0,64.8,30.14,North,0,6.0,12.0,66,0.00,,,0.01,meteohub,2013-04-28 02:34:00,
2013-04-27 22:39:00,77.0,64.8,30.14,North,0,6.0,12.0,66,0.00,,,0.01,meteohub,2013-04-28 02:39:00,
2013-04-27 22:44:00,76.8,64.9,30.14,East,90,7.0,12.0,67,0.00,,,0.01,meteohub,2013-04-28 02:44:00,
2013-04-27 22:49:00,76.8,64.9,30.14,North,0,8.0,11.0,67,0.00,,,0.01,meteohub,2013-04-28 02:49:00,
2013-04-27 22:54:00,76.8,64.9,30.14,North,0,8.0,11.0,67,0.00,,,0.01,meteohub,2013-04-28 02:54:00,
2013-04-27 22:59:00,76.8,65.5,30.14,NW,315,5.0,11.0,68,0.00,,,0.01,meteohub,2013-04-28 02:59:00,
2013-04-27 23:04:00,76.6,65.3,30.14,North,0,6.0,8.0,68,0.00,,,0.01,meteohub,2013-04-28 03:04:00,
2013-04-27 23:09:00,76.5,65.5,30.14,NW,315,4.0,8.0,69,0.00,,,0.01,meteohub,2013-04-28 03:09:00,
2013-04-27 23:15:00,76.3,65.3,30.14,NW,315,4.0,8.0,69,0.00,,,0.01,meteohub,2013-04-28 03:15:00,
2013-04-27 23:20:00,76.1,65.1,30.14,NE,45,8.0,8.0,69,0.00,,,0.01,meteohub,2013-04-28 03:20:00,
2013-04-27 23:25:00,76.1,65.1,30.15,North,0,8.0,9.0,69,0.00,,,0.01,meteohub,2013-04-28 03:25:00,
2013-04-27 23:30:00,75.9,65.5,30.14,NW,315,4.0,13.0,70,0.00,,,0.01,meteohub,2013-04-28 03:30:00,
2013-04-27 23:35:00,75.9,65.5,30.14,NE,45,7.0,13.0,70,0.00,,,0.01,meteohub,2013-04-28 03:35:00,
2013-04-27 23:40:00,75.7,65.3,30.14,North,0,4.0,13.0,70,0.00,,,0.01,meteohub,2013-04-28 03:40:00,
2013-04-27 23:45:00,75.7,65.7,30.15,NW,315,13.0,13.0,71,0.00,,,0.01,meteohub,2013-04-28 03:45:00,
2013-04-27 23:50:00,75.7,65.7,30.14,North,0,4.0,13.0,71,0.00,,,0.01,meteohub,2013-04-28 03:50:00,
2013-04-27 23:55:00,75.6,65.8,30.14,NW,315,8.0,13.0,72,0.00,,,0.01,meteohub,2013-04-28 03:55:00,